Vertical_Velocity
7 1 8 -0 9 8 3 6 5 3 -1 -1 -5 -0 1 10 4 0 2 -3 -1 -1 -0 -0 -1 1 -0 1 1 0 -1 -1 -2 -3 -2 -0 1 1 1 -1 -2 -2 -1
1 0 -8 -4 5 -0 6 6 9 7 -0 1 3 -5 3 3 7 5 10 1 -2 -1 -1 -1 -1 2 1 -1 -1 1 1 -3 0 -2 -1 -2 -1 0 1 0 -1 -0 -4
-8 12 -2 -1 2 3 9 0 4 6 4 6 5 -2 1 1 -0 6 39 9 1 -2 -1 -5 -2 -1 3 0 -0 2 4 2 2 -0 -1 -4 -2 2 0 0 0 1 1
-16 -6 -6 1 -3 2 5 9 10 1 5 3 4 -1 1 -6 -0 -1 -1 86 6 -2 -1 -3 -3 1 1 0 -0 -0 1 2 -1 -1 -3 -1 2 2 -1 -1 1 -1 1
0 -1 -2 2 3 3 4 6 7 4 10 1 5 3 -3 3 1 5 2 2 1 3 -2 3 -4 -0 -1 -1 -0 -1 1 1 1 2 -2 1 -2 3 -2 -0 -0 -1 1
9 3 1 1 -2 1 4 7 2 9 -4 1 -0 0 0 2 -2 -2 -5 3 7 4 -1 0 1 1 -1 -1 2 1 -1 -1 -0 2 -0 -1 -1 3 -0 -1 -2 -0 -1
-3 -1 -1 -0 2 -0 4 7 3 5 5 5 -3 5 3 2 2 -3 -1 -2 4 -1 -1 -0 17 -7 -1 -0 -2 -1 -2 0 0 0 -4 2 -2 1 2 -1 -2 -1 -2
0 1 3 4 -1 -0 -0 4 2 4 1 -1 2 3 5 -1 4 -6 0 -0 -0 2 1 6 -2 4 -2 8 -1 -0 -0 1 -1 -1 3 1 0 -1 -1 1 0 -2 -1
-0 2 3 5 2 3 -3 3 2 1 3 4 0 3 3 1 -2 1 0 -1 2 2 3 -1 9 -6 -7 -4 -4 4 -1 1 0 1 2 -0 -0 -1 -0 -2 -0 -1 -0
-1 3 5 4 4 4 -3 4 4 4 0 5 3 3 6 5 4 3 -2 1 3 -1 -3 2 2 1 -6 -3 -7 8 2 -3 1 4 -2 -3 -1 2 -4 0 1 -1 0
-1 -2 3 6 1 7 2 3 4 5 3 5 1 5 5 2 7 3 1 1 4 -2 -0 4 4 1 -1 -1 -1 3 0 -2 3 -0 -1 -2 -2 -4 -5 2 0 -2 -1
1 -1 -3 3 1 7 6 6 2 4 2 5 2 4 5 2 5 2 2 2 4 5 -1 -2 3 2 1 1 -10 19 1 -1 2 2 1 1 -3 -3 -2 1 -1 -1 4
2 2 3 1 3 6 9 9 4 -1 2 9 6 3 1 3 7 -1 4 2 8 8 3 -1 1 -1 -1 -0 1 0 4 9 6 6 0 3 -3 4 1 -2 -4 2 1
-1 5 3 1 5 2 7 11 11 8 -1 4 3 3 2 -1 3 2 2 0 5 4 5 4 2 -1 0 1 1 0 -1 -1 -5 2 2 2 -1 1 0 1 2 2 -2
5 -1 4 -0 4 2 3 5 8 9 4 -1 -1 1 3 7 14 3 -1 3 1 2 3 3 2 1 2 0 0 1 1 -1 2 1 -1 -2 1 -2 3 -2 0 1 -2
0 3 6 5 0 0 19 10 2 4 11 4 -1 -4 4 3 6 0 -8 2 3 2 3 1 3 0 -1 3 2 1 0 1 0 -0 0 1 1 1 2 1 -1 3 0
-0 2 7 -6 5 5 8 5 8 5 7 8 5 -1 -7 0 4 1 6 -3 -2 3 2 1 2 2 1 3 2 -0 -0 -0 -0 1 2 0 1 3 1 -2 -2 -2 1
3 -1 -0 3 -0 -3 -0 3 4 0 2 3 8 6 0 -3 -2 -1 3 -0 3 1 2 4 4 5 2 2 1 1 -1 0 -0 -1 1 0 -4 -4 -1 -2 -3 -2 -0
1 -1 0 0 -3 -1 1 5 8 5 -0 4 3 5 10 2 2 4 1 -2 0 1 -3 11 1 2 4 -1 -1 -1 -2 -0 1 1 -1 1 -1 -1 1 1 -4 2 -5
4 5 6 6 4 3 5 3 3 1 0 1 2 2 4 7 11 -2 1 6 3 20 10 11 -4 0 2 1 1 -2 -0 -1 2 1 1 -2 1 0 0 -2 3 -2 -0
2 -0 3 2 -2 2 5 3 5 5 4 5 1 2 3 1 4 14 10 1 4 4 -2 -4 -3 -2 -1 2 -1 -6 1 3 0 -0 -1 1 0 -2 -1 -0 -2 6 8
-2 2 4 2 3 1 4 0 2 3 2 1 1 3 3 4 5 1 8 3 14 5 1 12 -3 -5 -1 -1 7 -1 -1 1 -0 3 0 -4 -5 -4 -2 -2 -1 -0 2
1 -1 1 2 2 1 -3 4 2 -3 -1 -3 -1 1 4 3 5 4 3 10 5 9 11 7 2 -2 6 -1 -3 7 3 3 0 2 -1 -0 -1 -0 -2 0 1 2 1
3 1 -2 -2 2 1 1 -1 2 4 3 3 1 2 1 4 4 3 1 1 4 3 7 8 10 11 8 6 8 9 8 3 -1 5 7 -3 -1 -3 1 1 0 1 1
-1 -0 3 3 1 -2 -2 1 -1 2 2 -2 1 0 1 3 1 -0 4 4 3 4 8 4 10 7 7 8 10 7 6 10 11 10 3 6 7 6 1 1 1 -0 1
-1 -4 -4 -3 -2 0 1 2 1 -0 3 0 2 -1 -0 4 3 -0 -0 3 4 3 2 4 5 5 8 9 9 11 11 10 12 11 9 1 3 8 5 7 2 0 0
Height
3062 3067 3067 3066 3066 3068 3074 3079 3082 3085 3089 3091 3094 3098 3101 3106 3110 3114 3118 3121 3124 3128 3131 3134 3138 3141 3144 3147 3150 3152 3154 3156 3158 3162 3164 3166 3168 3170 3172 3173 3175 3176 3177
3053 3056 3051 3054 3054 3059 3064 3070 3073 3077 3080 3084 3087 3091 3097 3100 3105 3109 3111 3114 3118 3122 3126 3129 3132 3136 3139 3142 3145 3147 3149 3151 3154 3157 3160 3163 3165 3166 3168 3169 3171 3174 3173
3037 3040 3032 3039 3043 3047 3052 3057 3062 3067 3071 3076 3080 3083 3089 3092 3094 3098 3100 3104 3110 3115 3120 3123 3128 3131 3133 3137 3140 3143 3145 3147 3150 3152 3156 3158 3160 3162 3164 3166 3168 3169 3171
3005 3013 3015 3022 3026 3032 3037 3043 3050 3055 3060 3066 3071 3074 3078 3081 3086 3093 3098 3092 3102 3109 3114 3118 3122 3125 3128 3131 3135 3138 3140 3142 3145 3147 3150 3154 3157 3158 3161 3162 3164 3165 3167
2996 3001 3003 3007 3012 3016 3023 3030 3036 3042 3050 3053 3060 3065 3069 3075 3081 3087 3091 3095 3098 3103 3107 3112 3115 3118 3123 3126 3129 3133 3136 3137 3140 3143 3145 3149 3151 3153 3155 3157 3159 3161 3163
2987 2990 2992 2996 2999 3004 3009 3016 3023 3030 3035 3041 3049 3055 3060 3067 3071 3077 3080 3085 3091 3096 3102 3105 3109 3112 3117 3120 3124 3127 3130 3132 3135 3138 3141 3144 3147 3149 3150 3152 3153 3155 3157
2977 2978 2980 2982 2986 2991 2996 3002 3008 3017 3023 3030 3038 3045 3051 3058 3063 3067 3072 3077 3083 3087 3093 3098 3101 3107 3112 3115 3118 3121 3124 3127 3130 3133 3135 3138 3141 3143 3146 3147 3148 3150 3151
2970 2969 2969 2970 2973 2978 2983 2988 2995 3003 3010 3017 3026 3033 3041 3048 3054 3057 3064 3070 3075 3081 3088 3091 3095 3099 3103 3106 3110 3115 3118 3121 3124 3127 3129 3133 3135 3138 3140 3142 3143 3145 3146
2964 2962 2960 2960 2961 2966 2972 2977 2982 2991 2997 3004 3012 3021 3029 3036 3043 3049 3055 3061 3067 3072 3077 3082 3085 3089 3095 3100 3104 3107 3111 3115 3118 3122 3124 3127 3129 3132 3134 3136 3138 3139 3141
2961 2956 2953 2952 2950 2956 2962 2968 2972 2978 2984 2991 2999 3008 3016 3025 3033 3040 3045 3051 3058 3063 3067 3073 3077 3081 3087 3092 3096 3099 3103 3107 3111 3115 3118 3121 3123 3126 3128 3131 3132 3134 3136
2957 2953 2948 2945 2944 2946 2952 2958 2964 2968 2973 2981 2989 2997 3006 3013 3023 3029 3036 3042 3049 3054 3059 3065 3070 3075 3079 3084 3089 3092 3096 3100 3105 3108 3111 3115 3117 3119 3122 3124 3125 3127 3129
2954 2950 2946 2942 2940 2938 2943 2948 2954 2960 2964 2972 2979 2987 2996 3004 3012 3019 3027 3034 3039 3044 3050 3056 3062 3067 3072 3076 3081 3084 3089 3094 3097 3101 3104 3108 3110 3112 3116 3117 3119 3121 3122
2952 2948 2944 2939 2937 2933 2935 2940 2946 2952 2957 2963 2970 2978 2987 2995 3002 3009 3017 3024 3031 3036 3042 3048 3053 3058 3064 3068 3072 3077 3081 3086 3090 3092 3097 3101 3102 3104 3107 3110 3113 3114 3117
2949 2946 2942 2939 2934 2932 2931 2934 2938 2943 2949 2955 2961 2969 2979 2986 2993 3000 3007 3014 3021 3027 3034 3040 3046 3051 3055 3059 3064 3068 3073 3078 3082 3085 3089 3092 3092 3096 3099 3102 3105 3106 3108
2947 2944 2940 2937 2934 2931 2929 2930 2931 2935 2940 2947 2954 2962 2970 2979 2985 2992 2998 3005 3012 3019 3026 3032 3038 3043 3047 3051 3055 3059 3064 3068 3073 3076 3079 3082 3085 3089 3090 3092 3096 3097 3100
2947 2943 2940 2937 2933 2932 2926 2924 2928 2929 2933 2939 2946 2954 2961 2969 2977 2983 2991 2997 3004 3011 3018 3024 3029 3034 3038 3044 3048 3051 3055 3059 3063 3066 3071 3074 3076 3079 3081 3083 3086 3089 3089
2945 2941 2937 2934 2933 2928 2925 2925 2927 2927 2928 2932 2938 2946 2953 2960 2968 2975 2981 2989 2995 3002 3008 3014 3020 3025 3031 3036 3040 3043 3046 3049 3053 3057 3061 3064 3067 3070 3072 3073 3075 3077 3080
2948 2944 2941 2938 2934 2930 2927 2925 2924 2926 2927 2928 2931 2937 2944 2952 2958 2965 2973 2980 2986 2992 2999 3005 3011 3016 3020 3026 3030 3034 3036 3039 3043 3047 3051 3054 3058 3060 3062 3063 3063 3065 3068
2947 2944 2941 2938 2935 2931 2928 2926 2925 2925 2926 2927 2928 2931 2936 2943 2951 2957 2964 2969 2976 2983 2989 2995 2999 3004 3010 3015 3019 3023 3025 3029 3034 3037 3040 3044 3046 3050 3051 3052 3053 3056 3058
2948 2945 2941 2937 2934 2931 2928 2926 2926 2927 2927 2927 2927 2929 2931 2935 2941 2948 2955 2960 2968 2974 2978 2984 2990 2994 2999 3004 3009 3012 3015 3019 3023 3027 3030 3033 3036 3038 3040 3042 3044 3046 3050
2948 2945 2942 2939 2935 2932 2929 2928 2926 2926 2925 2925 2926 2927 2930 2932 2934 2938 2944 2952 2958 2963 2969 2974 2979 2984 2989 2994 2998 3001 3005 3010 3014 3017 3020 3022 3025 3027 3030 3032 3035 3037 3039
2950 2948 2943 2940 2937 2934 2932 2929 2928 2926 2925 2925 2926 2927 2929 2931 2932 2934 2936 2941 2947 2954 2957 2963 2969 2974 2979 2983 2987 2992 2997 3001 3004 3007 3010 3013 3016 3019 3021 3023 3026 3027 3028
2951 2947 2944 2942 2940 2937 2934 2931 2929 2928 2927 2927 2927 2928 2929 2930 2931 2934 2935 2936 2939 2943 2948 2953 2959 2964 2969 2974 2979 2983 2988 2992 2996 3000 3003 3006 3009 3011 3013 3015 3018 3019 3021
2951 2949 2946 2944 2941 2939 2936 2934 2932 2931 2931 2930 2929 2929 2929 2930 2931 2933 2935 2935 2937 2939 2944 2946 2951 2955 2960 2965 2970 2973 2979 2983 2987 2992 2995 2999 3002 3005 3007 3009 3011 3014 3016
2951 2949 2947 2945 2943 2942 2939 2937 2935 2933 2932 2931 2930 2930 2930 2931 2931 2933 2934 2935 2937 2939 2941 2945 2947 2950 2954 2958 2962 2967 2971 2974 2978 2983 2988 2991 2995 2998 3001 3003 3006 3008 3010
2952 2950 2948 2946 2944 2943 2940 2938 2937 2935 2935 2934 2933 2933 2932 2932 2932 2932 2933 2935 2936 2937 2939 2942 2945 2948 2951 2954 2957 2960 2964 2968 2972 2976 2980 2984 2988 2990 2993 2996 2998 3001 3003